Tracking 23752 objects as of 24-Oct-2021
HD Live streaming from Space Station
objects crossing your sky now

BREEZE-M DEB

Track BREEZE-M DEB now!
10-day predictions


NORAD ID: 38566
Int'l Code: 2008-011M
Perigee: 499.3 km
Apogee: 17,903.5 km
Inclination: 48.2 °
Period: 322.3 minutes
Semi major axis: 15572 km
RCS: 0.269 m2 (medium)
Launch date: March 14, 2008
Source: Commonwealth of Independent States (former USSR) (CIS)
Launch site: TYURATAM MISSILE AND SPACE COMPLEX (TTMTR)

Note: This is SATELLITE DEBRIS
aabbcc
Your satellite tracking list
Your tracking list is empty




NASA's NSSDC Master Catalog

Two Line Element Set (TLE):
1 38566U 08011M   21296.43852532  .00012619  00000-0  25720-1 0  9996
2 38566  48.1971  73.2066 5588163 201.6930 120.1172  4.46754409147022
Source of the keplerian elements: AFSPC